"Date","Time","Depth","Temp","Salinity","pH","DO","Turbidity+"
"M/D/Y","hh:mm:ss","m","C","ppt","","mg/L","NTU"
"12/05/05","10:01:00",0.051,11.56,0.22,7.97,9.77,11.5
"12/05/05","10:16:00",0.036,9.50,0.21,7.86,10.49,13.9
"12/05/05","10:31:00",0.044,9.11,0.20,7.89,10.73,27.3
"12/05/05","10:46:00",0.060,9.13,0.20,7.89,10.71,27.1
"12/05/05","11:01:00",0.067,9.16,0.20,7.90,10.70,28.0
"12/05/05","11:16:00",0.065,9.15,0.20,7.90,10.72,26.4
"12/05/05","11:31:00",0.058,9.16,0.20,7.90,10.71,26.6
"12/05/05","11:46:00",0.074,9.18,0.20,7.90,10.70,25.5
"12/05/05","12:01:00",0.071,9.20,0.20,7.90,10.69,26.5
"12/05/05","12:16:00",0.059,9.22,0.20,7.90,10.68,26.0
"12/05/05","12:31:00",0.051,9.23,0.20,7.91,10.69,26.4
"12/05/05","12:46:00",0.060,9.28,0.20,7.91,10.70,25.4
"12/05/05","13:01:00",0.065,9.27,0.20,7.91,10.69,26.6
"12/05/05","13:16:00",0.053,9.26,0.20,7.91,10.71,27.1
"12/05/05","13:31:00",0.073,9.29,0.20,7.91,10.69,26.4
"12/05/05","13:46:00",0.107,9.29,0.20,7.91,10.66,26.8
"12/05/05","14:01:00",0.064,9.26,0.20,7.91,10.70,26.6
"12/05/05","14:16:00",0.066,9.30,0.20,7.91,10.70,26.0
"12/05/05","14:31:00",0.060,9.29,0.20,7.91,10.68,26.7
"12/05/05","14:46:00",0.057,9.32,0.20,7.91,10.68,25.3
"12/05/05","15:01:00",0.058,9.32,0.20,7.92,10.69,25.9
"12/05/05","15:16:00",0.061,9.33,0.20,7.91,10.69,26.3
"12/05/05","15:31:00",0.057,9.34,0.20,7.91,10.70,25.8
"12/05/05","15:46:00",0.077,9.35,0.20,7.91,10.68,25.9
"12/05/05","16:01:00",0.064,9.36,0.20,7.92,10.69,25.3
"12/05/05","16:16:00",0.068,9.38,0.20,7.92,10.68,24.7
"12/05/05","16:31:00",0.057,9.38,0.20,7.91,10.67,22.7
"12/05/05","16:46:00",0.064,9.40,0.20,7.92,10.67,24.1
"12/05/05","17:01:00",0.064,9.38,0.20,7.92,10.67,24.8
"12/05/05","17:16:00",0.065,9.37,0.20,7.92,10.67,25.8
"12/05/05","17:31:00",0.067,9.39,0.20,7.91,10.66,26.6
"12/05/05","17:46:00",0.066,9.50,0.20,7.93,10.70,17.5
"12/05/05","18:01:00",0.175,9.32,0.20,7.95,10.74,15.0
"12/05/05","18:16:00",0.178,9.29,0.20,7.94,10.72,14.5
"12/05/05","18:31:00",0.182,9.31,0.20,7.94,10.71,15.0
"12/05/05","18:46:00",0.178,9.28,0.20,7.93,10.69,14.5
"12/05/05","19:01:00",0.184,9.28,0.20,7.93,10.67,16.2
"12/05/05","19:16:00",0.186,9.28,0.20,7.93,10.68,14.1
"12/05/05","19:31:00",0.192,9.24,0.20,7.93,10.70,18.9
"12/05/05","19:46:00",0.199,9.23,0.20,7.93,10.69,18.6
"12/05/05","20:01:00",0.206,9.23,0.20,7.93,10.69,16.6
"12/05/05","20:16:00",0.207,9.22,0.20,7.93,10.68,17.5
"12/05/05","20:31:00",0.212,9.25,0.20,7.93,10.68,17.0
"12/05/05","20:46:00",0.215,9.20,0.20,7.93,10.68,17.1
"12/05/05","21:01:00",0.216,9.25,0.20,7.93,10.69,14.7
"12/05/05","21:16:00",0.223,9.26,0.20,7.93,10.67,15.9
"12/05/05","21:31:00",0.228,9.23,0.20,7.93,10.67,15.7
"12/05/05","21:46:00",0.232,9.22,0.20,7.93,10.67,14.6
"12/05/05","22:01:00",0.236,9.21,0.20,7.93,10.66,15.8
"12/05/05","22:16:00",0.238,9.21,0.20,7.93,10.66,15.2
"12/05/05","22:31:00",0.241,9.19,0.20,7.93,10.67,15.2
"12/05/05","22:46:00",0.247,9.17,0.20,7.92,10.67,16.1
"12/05/05","23:01:00",0.252,9.18,0.20,7.93,10.66,15.8
"12/05/05","23:16:00",0.258,9.16,0.20,7.93,10.66,14.4
"12/05/05","23:31:00",0.261,9.19,0.20,7.93,10.66,14.5
"12/05/05","23:46:00",0.265,9.16,0.20,7.93,10.66,16.7
"12/06/05","00:01:00",0.263,9.15,0.20,7.92,10.67,16.4
"12/06/05","00:16:00",0.267,9.13,0.20,7.92,10.66,15.9
"12/06/05","00:31:00",0.271,9.13,0.20,7.92,10.66,16.3
"12/06/05","00:46:00",0.276,9.12,0.20,7.92,10.67,18.3
"12/06/05","01:01:00",0.272,9.10,0.20,7.92,10.67,20.9
"12/06/05","01:16:00",0.277,9.09,0.20,7.92,10.67,18.1
"12/06/05","01:31:00",0.282,9.10,0.20,7.93,10.66,17.5
"12/06/05","01:46:00",0.269,9.09,0.20,7.92,10.67,17.2
"12/06/05","02:01:00",0.276,9.06,0.20,7.93,10.67,21.9
"12/06/05","02:16:00",0.286,9.06,0.20,7.93,10.66,17.3
"12/06/05","02:31:00",0.289,9.06,0.20,7.93,10.65,17.3
"12/06/05","02:46:00",0.293,9.08,0.20,7.93,10.64,16.5
"12/06/05","03:01:00",0.298,9.05,0.20,7.93,10.66,18.6
"12/06/05","03:16:00",0.283,9.04,0.20,7.93,10.66,16.9
"12/06/05","03:31:00",0.298,9.04,0.20,7.93,10.66,25.0
"12/06/05","03:46:00",0.310,9.04,0.20,7.93,10.67,19.7
"12/06/05","04:01:00",0.313,9.06,0.20,7.93,10.65,20.8
"12/06/05","04:16:00",0.313,9.04,0.20,7.93,10.66,20.5
"12/06/05","04:31:00",0.317,9.02,0.20,7.92,10.66,20.8
"12/06/05","04:46:00",0.322,9.01,0.20,7.92,10.67,21.3
"12/06/05","05:01:00",0.326,9.02,0.19,7.92,10.66,21.4
"12/06/05","05:16:00",0.332,9.02,0.19,7.93,10.64,19.2
"12/06/05","05:31:00",0.333,9.01,0.19,7.92,10.64,18.9
"12/06/05","05:46:00",0.338,8.99,0.19,7.93,10.66,20.6
"12/06/05","06:01:00",0.342,8.98,0.19,7.93,10.67,20.9
"12/06/05","06:16:00",0.344,8.98,0.19,7.93,10.65,18.7
"12/06/05","06:31:00",0.345,8.96,0.19,7.93,10.68,22.0
"12/06/05","06:46:00",0.350,8.96,0.19,7.93,10.67,20.5
"12/06/05","07:01:00",0.357,8.96,0.19,7.93,10.67,20.0
"12/06/05","07:16:00",0.342,8.95,0.19,7.93,10.67,19.1
"12/06/05","07:31:00",0.359,8.94,0.19,7.93,10.69,23.8
"12/06/05","07:46:00",0.358,8.93,0.19,7.93,10.69,22.5
"12/06/05","08:01:00",0.368,8.91,0.19,7.93,10.68,20.7
"12/06/05","08:16:00",0.354,8.93,0.19,7.93,10.69,21.8
"12/06/05","08:31:00",0.384,8.92,0.19,7.93,10.66,20.1
"12/06/05","08:46:00",0.152,8.92,0.20,7.91,10.69,22.4
"12/06/05","09:01:00",0.265,8.70,0.20,7.90,10.68,41.1
"12/06/05","09:16:00",0.200,8.71,0.20,7.92,10.72,11.4
"12/06/05","09:31:00",0.208,8.75,0.19,7.92,10.73,12.5
"12/06/05","09:46:00",0.211,8.88,0.19,7.93,10.76,15.3
"12/06/05","10:01:00",0.218,9.01,0.19,7.93,10.73,15.6
"12/06/05","10:16:00",0.116,8.92,0.20,7.93,10.83,25.7
"12/06/05","10:31:00",0.104,8.94,0.20,7.93,10.83,26.6
"12/06/05","10:46:00",0.104,8.96,0.20,7.93,10.84,25.8
"12/06/05","11:01:00",0.108,8.99,0.20,7.93,10.82,26.3
"12/06/05","11:16:00",0.089,9.02,0.20,7.93,10.82,26.6
"12/06/05","11:31:00",0.105,9.04,0.20,7.93,10.82,27.5
"12/06/05","11:46:00",0.089,9.06,0.20,7.94,10.89,24.4
"12/06/05","12:01:00",0.079,9.05,0.20,7.93,10.80,26.4
"12/06/05","12:16:00",0.076,9.06,0.20,7.93,10.80,27.2
"12/06/05","12:31:00",0.078,9.04,0.20,7.93,10.81,27.2
"12/06/05","12:46:00",0.070,9.09,0.20,7.93,10.79,25.5
"12/06/05","13:01:00",0.068,9.07,0.20,7.93,10.79,27.0
"12/06/05","13:16:00",0.082,9.12,0.20,7.93,10.76,25.4
"12/06/05","13:31:00",0.101,9.10,0.20,7.93,10.75,26.9
"12/06/05","13:46:00",0.096,9.12,0.20,7.93,10.75,26.8
"12/06/05","14:01:00",0.072,9.15,0.20,7.93,10.76,28.5
"12/06/05","14:16:00",0.065,9.21,0.20,7.93,10.78,27.8
"12/06/05","14:31:00",0.062,9.21,0.20,7.93,10.79,27.0
"12/06/05","14:46:00",0.053,9.23,0.20,7.93,10.78,26.1
"12/06/05","15:01:00",0.050,9.26,0.20,7.93,10.79,25.6
"12/06/05","15:16:00",0.069,9.24,0.20,7.93,10.77,26.3
"12/06/05","15:31:00",0.054,9.29,0.20,7.93,10.78,27.6
"12/06/05","15:46:00",0.051,9.23,0.20,7.93,10.76,27.3
"12/06/05","16:01:00",0.057,9.26,0.20,7.93,10.77,27.8
"12/06/05","16:16:00",0.065,9.25,0.20,7.93,10.74,26.6
"12/06/05","16:31:00",0.058,9.27,0.20,7.93,10.74,26.4
"12/06/05","16:46:00",0.047,9.33,0.20,7.93,10.76,25.5
"12/06/05","17:01:00",0.052,9.32,0.20,7.93,10.76,24.0
"12/06/05","17:16:00",0.046,9.31,0.20,7.92,10.75,26.0
"12/06/05","17:31:00",0.046,9.32,0.20,7.92,10.74,27.4
"12/06/05","17:46:00",0.057,11.50,0.06,7.34,9.74,63.3
"12/06/05","18:01:00",0.117,11.55,0.06,7.39,9.90,73.3
"12/06/05","18:16:00",0.082,11.48,0.06,7.37,9.90,72.8
"12/06/05","18:31:00",0.137,11.34,0.06,7.38,9.88,66.4
"12/06/05","18:46:00",0.113,11.25,0.06,7.36,9.88,68.3
"12/06/05","19:01:00",0.147,11.25,0.07,7.36,9.85,73.9
"12/06/05","19:16:00",0.152,11.18,0.07,7.35,9.81,63.4
"12/06/05","19:31:00",0.157,11.21,0.07,7.35,9.77,61.7
"12/06/05","19:46:00",0.172,11.09,0.07,7.34,9.80,61.6
"12/06/05","20:01:00",0.183,11.10,0.07,7.34,9.81,90.2
"12/06/05","20:16:00",0.190,11.05,0.07,7.34,9.77,66.4
"12/06/05","20:31:00",0.193,10.97,0.07,7.34,9.75,62.5
"12/06/05","20:46:00",0.196,11.02,0.06,7.33,9.73,60.4
"12/06/05","21:01:00",0.193,10.95,0.06,7.31,9.74,58.2
"12/06/05","21:16:00",0.196,10.98,0.06,7.31,9.71,60.1
"12/06/05","21:31:00",0.195,10.98,0.06,7.31,9.71,56.8
"12/06/05","21:46:00",0.203,10.99,0.06,7.31,9.71,57.9
"12/06/05","22:01:00",0.202,10.93,0.06,7.29,9.75,80.7
"12/06/05","22:16:00",0.219,10.94,0.06,7.31,9.73,60.9
"12/06/05","22:31:00",0.217,10.96,0.07,7.32,9.72,61.7
"12/06/05","22:46:00",0.227,10.96,0.07,7.31,9.70,61.4
"12/06/05","23:01:00",0.232,10.89,0.07,7.30,9.69,59.5
"12/06/05","23:16:00",0.242,10.87,0.07,7.30,9.69,57.5
"12/06/05","23:31:00",0.238,10.94,0.07,7.31,9.66,57.2
"12/06/05","23:46:00",0.247,10.90,0.07,7.30,9.67,56.2
"12/07/05","00:01:00",0.251,10.84,0.07,7.30,9.67,55.4
"12/07/05","00:16:00",0.247,10.85,0.07,7.30,9.68,57.1
"12/07/05","00:31:00",0.246,10.86,0.07,7.30,9.69,56.2
"12/07/05","00:46:00",0.250,10.77,0.07,7.32,9.70,54.0
"12/07/05","01:01:00",0.256,10.83,0.07,7.30,9.68,54.3
"12/07/05","01:16:00",0.257,10.80,0.07,7.29,9.70,56.3
"12/07/05","01:31:00",0.271,10.72,0.07,7.31,9.70,53.2
"12/07/05","01:46:00",0.271,10.77,0.07,7.30,9.68,52.9
"12/07/05","02:01:00",0.274,10.78,0.07,7.29,9.69,53.1
"12/07/05","02:16:00",0.276,10.84,0.07,7.30,9.66,53.1
"12/07/05","02:31:00",0.284,10.68,0.07,7.30,9.70,52.5
"12/07/05","02:46:00",0.285,10.71,0.07,7.29,9.71,53.8
"12/07/05","03:01:00",0.292,10.67,0.07,7.30,9.70,53.8
"12/07/05","03:16:00",0.295,10.66,0.07,7.30,9.70,52.9
"12/07/05","03:31:00",0.305,10.61,0.07,7.32,9.70,51.8
"12/07/05","03:46:00",0.303,10.59,0.07,7.31,9.70,52.7
"12/07/05","04:01:00",0.318,10.60,0.07,7.30,9.71,52.2
"12/07/05","04:16:00",0.318,10.55,0.07,7.31,9.71,52.4
"12/07/05","04:31:00",0.282,10.58,0.07,7.28,9.73,55.5
"12/07/05","04:46:00",0.316,10.55,0.07,7.30,9.71,51.6
"12/07/05","05:01:00",0.307,10.49,0.07,7.30,9.72,51.3
"12/07/05","05:16:00",0.321,10.44,0.07,7.31,9.73,50.1
"12/07/05","05:31:00",0.325,10.52,0.07,7.29,9.71,52.9
"12/07/05","05:46:00",0.328,10.52,0.07,7.30,9.69,51.4
"12/07/05","06:01:00",0.332,10.51,0.07,7.29,9.70,53.7
"12/07/05","06:16:00",0.345,10.45,0.07,7.28,9.70,54.4
"12/07/05","06:31:00",0.348,10.48,0.07,7.29,9.68,52.4
"12/07/05","06:46:00",0.349,10.41,0.07,7.28,9.70,52.1
"12/07/05","07:01:00",0.349,10.42,0.07,7.29,9.68,52.1
"12/07/05","07:16:00",0.356,10.43,0.07,7.30,9.67,50.8
"12/07/05","07:31:00",0.357,10.40,0.07,7.29,9.70,51.9
"12/07/05","07:46:00",0.370,10.39,0.07,7.29,9.69,53.7
"12/07/05","08:01:00",0.345,10.23,0.07,7.29,9.76,96.3
"12/07/05","08:16:00",0.401,10.48,0.07,7.27,9.67,87.7
"12/07/05","08:31:00",0.401,10.52,0.07,7.28,9.66,72.2
"12/07/05","08:46:00",0.389,10.50,0.07,7.27,9.67,66.5
"12/07/05","09:01:00",0.397,10.53,0.07,7.27,9.66,62.9
"12/07/05","09:16:00",0.389,10.47,0.07,7.25,9.76,130.3
"12/07/05","09:31:00",0.421,10.47,0.07,7.30,9.78,73.1
"12/07/05","09:46:00",0.411,10.52,0.07,7.29,9.80,66.2
"12/07/05","10:01:00",0.415,10.44,0.07,7.30,9.87,84.7
"12/07/05","10:16:00",0.400,10.49,0.07,7.31,9.88,70.0
"12/07/05","10:31:00",0.421,10.52,0.07,7.30,9.86,64.3
"12/07/05","10:46:00",0.392,10.53,0.07,7.31,9.97,63.5
"12/07/05","11:01:00",0.243,10.49,0.07,7.34,10.04,73.3
"12/07/05","11:16:00",0.253,10.53,0.07,7.33,10.01,62.0
"12/07/05","11:31:00",0.254,10.62,0.07,7.32,10.01,69.4
"12/07/05","11:46:00",0.266,10.74,0.07,7.34,10.12,67.9
"12/07/05","12:01:00",0.272,10.73,0.07,7.33,10.02,67.9
"12/07/05","12:16:00",0.265,10.78,0.07,7.34,10.09,65.6
"12/07/05","12:31:00",0.266,10.85,0.07,7.35,10.07,64.5
"12/07/05","12:46:00",0.188,10.95,0.07,7.31,10.13,78.1
"12/07/05","13:01:00",0.271,10.90,0.07,7.33,10.05,75.4
"12/07/05","13:16:00",0.267,10.95,0.07,7.34,10.12,68.1
"12/07/05","13:31:00",0.270,10.97,0.07,7.34,10.10,64.2
"12/07/05","13:46:00",0.280,11.01,0.07,7.33,10.13,60.4
"12/07/05","14:01:00",0.272,11.09,0.07,7.34,10.14,60.7
"12/07/05","14:16:00",0.275,11.05,0.07,7.34,10.12,57.3
"12/07/05","14:31:00",0.276,11.02,0.07,7.33,10.09,57.6
"12/07/05","14:46:00",0.278,11.01,0.07,7.33,10.08,56.8
"12/07/05","15:01:00",0.287,10.99,0.07,7.32,10.11,91.6
"12/07/05","15:16:00",0.245,10.88,0.07,7.32,10.02,151.0
"12/07/05","15:31:00",0.299,10.88,0.07,7.33,10.04,76.8
"12/07/05","15:46:00",0.303,10.84,0.07,7.33,10.05,85.5
"12/07/05","16:01:00",0.295,10.84,0.07,7.33,10.09,75.0
"12/07/05","16:16:00",0.300,10.85,0.07,7.33,10.12,80.3
"12/07/05","16:31:00",0.315,10.80,0.07,7.33,10.13,119.2
"12/07/05","16:46:00",0.309,10.81,0.07,7.35,10.15,82.4
"12/07/05","17:01:00",0.321,10.76,0.07,7.35,10.13,73.4
"12/07/05","17:16:00",0.326,10.73,0.07,7.34,10.16,70.0
"12/07/05","17:31:00",0.328,10.68,0.07,7.33,10.16,69.8
"12/07/05","17:46:00",0.322,10.71,0.07,7.31,9.96,66.5
"12/07/05","18:01:00",0.335,10.68,0.07,7.30,10.04,62.2
"12/07/05","18:16:00",0.344,10.66,0.07,7.31,10.00,63.2
"12/07/05","18:31:00",0.345,10.64,0.07,7.31,9.98,59.6
"12/07/05","18:46:00",0.341,10.63,0.07,7.31,9.96,57.8
"12/07/05","19:01:00",0.355,10.59,0.07,7.30,9.94,57.3
"12/07/05","19:16:00",0.353,10.48,0.07,7.30,10.02,69.5
"12/07/05","19:31:00",0.362,10.56,0.07,7.30,9.94,58.8
"12/07/05","19:46:00",0.364,10.55,0.07,7.30,9.90,56.8
"12/07/05","20:01:00",0.372,10.53,0.07,7.30,9.90,60.0
"12/07/05","20:16:00",0.379,10.51,0.07,7.28,9.89,62.1
"12/07/05","20:31:00",0.380,10.48,0.07,7.30,9.88,55.1
"12/07/05","20:46:00",0.381,10.48,0.07,7.30,9.86,53.2
"12/07/05","21:01:00",0.387,10.47,0.07,7.29,9.87,56.7
"12/07/05","21:16:00",0.388,10.46,0.07,7.27,9.85,55.7
"12/07/05","21:31:00",0.388,10.46,0.07,7.29,9.82,55.8
"12/07/05","21:46:00",0.388,10.44,0.07,7.29,9.81,55.4
"12/07/05","22:01:00",0.389,10.45,0.07,7.27,9.83,54.1
"12/07/05","22:16:00",0.383,10.42,0.07,7.30,9.81,55.4
"12/07/05","22:31:00",0.411,10.42,0.07,7.28,9.80,54.6
"12/07/05","22:46:00",0.395,10.40,0.07,7.29,9.79,54.9
"12/07/05","23:01:00",0.382,10.33,0.07,7.28,9.89,196.2
"12/07/05","23:16:00",0.415,10.41,0.07,7.28,9.82,87.9
"12/07/05","23:31:00",0.414,10.41,0.07,7.27,9.81,58.4
"12/07/05","23:46:00",0.409,10.41,0.07,7.28,9.78,58.9
"12/08/05","00:01:00",0.422,10.43,0.07,7.27,9.76,60.3
"12/08/05","00:16:00",0.422,10.45,0.07,7.27,9.78,62.1
"12/08/05","00:31:00",0.431,10.46,0.07,7.28,9.74,62.6
"12/08/05","00:46:00",0.223,10.46,0.07,7.27,9.64,63.1
"12/08/05","01:01:00",0.241,10.48,0.07,7.26,9.62,60.2
"12/08/05","01:16:00",0.249,10.48,0.07,7.27,9.61,56.2
"12/08/05","01:31:00",0.246,10.48,0.07,7.26,9.60,56.3
"12/08/05","01:46:00",0.250,10.49,0.07,7.24,9.61,57.8
"12/08/05","02:01:00",0.251,10.49,0.07,7.27,9.58,54.7
"12/08/05","02:16:00",0.260,10.48,0.07,7.22,9.59,79.8
"12/08/05","02:31:00",0.262,10.46,0.07,7.25,9.60,57.2
"12/08/05","02:46:00",0.265,10.45,0.07,7.27,9.59,58.0
"12/08/05","03:01:00",0.275,10.47,0.07,7.27,9.58,57.6
"12/08/05","03:16:00",0.267,10.47,0.07,7.26,9.57,59.4
"12/08/05","03:31:00",0.284,10.48,0.07,7.27,9.54,58.9
"12/08/05","03:46:00",0.278,10.48,0.07,7.27,9.54,59.9
"12/08/05","04:01:00",0.275,10.46,0.07,7.26,9.57,58.7
"12/08/05","04:16:00",0.271,10.45,0.07,7.27,9.54,58.7
"12/08/05","04:31:00",0.274,10.46,0.07,7.27,9.55,55.5
"12/08/05","04:46:00",0.287,10.45,0.07,7.27,9.56,56.6
"12/08/05","05:01:00",0.277,10.45,0.07,7.28,9.56,57.9
"12/08/05","05:16:00",0.289,10.45,0.07,7.28,9.55,54.2
"12/08/05","05:31:00",0.280,10.47,0.07,7.28,9.56,55.0
"12/08/05","05:46:00",0.297,10.48,0.07,7.28,9.54,55.7
"12/08/05","06:01:00",0.275,10.46,0.07,7.27,9.54,54.5
"12/08/05","06:16:00",0.309,10.47,0.07,7.28,9.52,55.4
"12/08/05","06:31:00",0.299,10.46,0.07,7.27,9.53,58.2
"12/08/05","06:46:00",0.305,10.46,0.07,7.28,9.53,71.9
"12/08/05","07:01:00",0.320,10.45,0.07,7.28,9.52,61.4
"12/08/05","07:16:00",0.328,10.48,0.07,7.27,9.50,65.0
"12/08/05","07:31:00",0.424,10.53,0.07,7.28,9.47,65.4
"12/08/05","07:46:00",0.472,10.19,0.07,7.32,9.72,258.7
"12/08/05","08:01:00",0.478,10.34,0.07,7.30,9.66,252.5
"12/08/05","08:16:00",0.475,10.31,0.07,7.30,9.65,69.4
"12/08/05","08:31:00",0.476,10.26,0.07,7.31,9.65,64.7
"12/08/05","08:46:00",0.478,10.26,0.07,7.32,9.63,62.9
"12/08/05","09:01:00",0.476,10.23,0.07,7.32,9.63,70.6
"12/08/05","09:16:00",0.476,10.35,0.07,7.31,9.54,62.6
"12/08/05","09:31:00",0.489,10.29,0.07,7.31,9.56,61.0
"12/08/05","09:46:00",0.506,10.35,0.07,7.29,9.52,58.7
"12/08/05","10:01:00",0.496,10.31,0.07,7.25,9.56,306.8
"12/08/05","10:16:00",0.509,10.31,0.07,7.30,9.54,68.6
"12/08/05","10:31:00",0.517,10.31,0.07,7.29,9.54,66.2
"12/08/05","10:46:00",0.520,10.29,0.07,7.31,9.54,61.6
"12/08/05","11:01:00",0.493,10.28,0.07,7.32,9.57,65.6
"12/08/05","11:16:00",0.527,10.27,0.07,7.31,9.58,63.6
"12/08/05","11:31:00",0.526,10.22,0.07,7.31,9.64,67.2
"12/08/05","11:46:00",0.533,10.21,0.07,7.31,9.63,60.4
"12/08/05","12:01:00",0.532,10.17,0.07,7.32,9.69,56.2
"12/08/05","12:16:00",0.543,10.14,0.07,7.32,9.74,55.6
"12/08/05","12:31:00",0.543,10.21,0.07,7.32,9.69,55.9
"12/08/05","12:46:00",0.545,10.24,0.07,7.31,9.74,60.6
"12/08/05","13:01:00",0.538,10.25,0.07,7.33,9.73,60.9
"12/08/05","13:16:00",0.551,10.32,0.07,7.32,9.69,60.3
"12/08/05","13:31:00",0.562,10.32,0.07,7.33,9.71,58.0
"12/08/05","13:46:00",0.553,10.34,0.07,7.32,9.74,56.8
"12/08/05","14:01:00",0.489,10.37,0.07,7.29,9.73,64.0
"12/08/05","14:16:00",0.257,10.31,0.07,7.33,9.77,57.3
"12/08/05","14:31:00",0.264,10.28,0.07,7.33,9.82,55.2
"12/08/05","14:46:00",0.263,10.24,0.07,7.31,9.90,276.4
"12/08/05","15:01:00",0.278,10.25,0.07,7.34,9.88,63.2
"12/08/05","15:16:00",0.274,10.25,0.07,7.29,9.87,962.8
"12/08/05","15:31:00",0.290,10.21,0.07,7.34,9.81,76.7
"12/08/05","15:46:00",0.281,10.22,0.07,7.33,9.76,62.3
"12/08/05","16:01:00",0.302,10.16,0.07,7.29,9.83,376.0
"12/08/05","16:16:00",0.314,10.21,0.07,7.32,9.75,77.3
"12/08/05","16:31:00",0.319,10.19,0.07,7.32,9.76,66.7
"12/08/05","16:46:00",0.323,10.10,0.07,7.31,9.82,67.8
"12/08/05","17:01:00",0.338,10.09,0.07,7.32,9.80,63.5
"12/08/05","17:16:00",0.340,10.04,0.07,7.34,9.80,61.3
"12/08/05","17:31:00",0.343,9.99,0.07,7.33,9.82,59.2
"12/08/05","17:46:00",0.348,10.00,0.07,7.32,9.76,57.6
"12/08/05","18:01:00",0.358,9.96,0.07,7.32,9.77,55.9
"12/08/05","18:16:00",0.362,9.95,0.07,7.30,9.76,63.7
"12/08/05","18:31:00",0.364,9.89,0.07,7.32,9.79,61.9
"12/08/05","18:46:00",0.362,9.91,0.07,7.31,9.80,160.0
"12/08/05","19:01:00",0.372,9.94,0.07,7.32,9.75,68.6
"12/08/05","19:16:00",0.376,9.94,0.07,7.32,9.73,65.0
"12/08/05","19:31:00",0.382,9.95,0.07,7.32,9.71,61.9
"12/08/05","19:46:00",0.382,9.92,0.07,7.32,9.71,60.5
"12/08/05","20:01:00",0.393,9.88,0.07,7.32,9.71,60.5
"12/08/05","20:16:00",0.383,9.89,0.07,7.28,9.75,614.2
"12/08/05","20:31:00",0.396,10.01,0.07,7.29,9.68,77.6
"12/08/05","20:46:00",0.395,9.97,0.07,7.29,9.68,70.8
"12/08/05","21:01:00",0.404,9.95,0.07,7.30,9.67,69.7
"12/08/05","21:16:00",0.403,9.90,0.07,7.30,9.67,65.7
"12/08/05","21:31:00",0.409,9.71,0.07,7.30,9.72,63.5
"12/08/05","21:46:00",0.412,9.67,0.07,7.30,9.73,60.8
"12/08/05","22:01:00",0.416,9.72,0.07,7.30,9.73,65.1
"12/08/05","22:16:00",0.413,9.73,0.07,7.30,9.69,58.3
"12/08/05","22:31:00",0.415,9.65,0.07,7.31,9.71,59.8
"12/08/05","22:46:00",0.426,9.52,0.07,7.31,9.75,58.7
"12/08/05","23:01:00",0.428,9.64,0.07,7.29,9.72,55.7
"12/08/05","23:16:00",0.432,9.63,0.07,7.30,9.73,56.6
"12/08/05","23:31:00",0.444,9.60,0.07,7.30,9.72,55.3
"12/08/05","23:46:00",0.361,9.61,0.07,7.33,9.70,59.0
"12/09/05","00:01:00",0.368,9.56,0.07,7.30,9.74,57.5
"12/09/05","00:16:00",0.364,9.47,0.07,7.35,9.78,57.4
"12/09/05","00:31:00",0.437,9.45,0.08,7.33,9.83,109.1
"12/09/05","00:46:00",0.441,9.54,0.07,7.33,9.82,239.4
"12/09/05","01:01:00",0.451,9.66,0.07,7.31,9.69,70.6
"12/09/05","01:16:00",0.453,9.57,0.07,7.31,9.72,67.2
"12/09/05","01:31:00",0.457,9.57,0.07,7.29,9.72,67.8
"12/09/05","01:46:00",0.462,9.54,0.07,7.31,9.70,63.2
"12/09/05","02:01:00",0.458,9.49,0.07,7.31,9.72,60.3
"12/09/05","02:16:00",0.466,9.44,0.07,7.29,9.73,60.9
"12/09/05","02:31:00",0.466,9.35,0.07,7.30,9.73,59.5
"12/09/05","02:46:00",0.473,9.36,0.07,7.32,9.72,55.2
"12/09/05","03:01:00",0.465,9.38,0.07,7.33,9.82,132.5
"12/09/05","03:16:00",0.477,9.47,0.07,7.32,9.75,70.5
"12/09/05","03:31:00",0.479,9.32,0.07,7.32,9.79,69.6
"12/09/05","03:46:00",0.485,9.41,0.07,7.32,9.75,63.0
"12/09/05","04:01:00",0.489,9.36,0.07,7.30,9.79,64.0
"12/09/05","04:16:00",0.486,9.33,0.07,7.30,9.77,60.6
"12/09/05","04:31:00",0.498,9.37,0.07,7.32,9.74,60.0
"12/09/05","04:46:00",0.503,9.37,0.07,7.31,9.73,57.9
"12/09/05","05:01:00",0.504,9.32,0.07,7.32,9.73,55.7
"12/09/05","05:16:00",0.499,9.28,0.07,7.31,9.73,55.7
"12/09/05","05:31:00",0.506,9.30,0.07,7.32,9.71,55.2
"12/09/05","05:46:00",0.510,9.33,0.07,7.31,9.71,55.5
"12/09/05","06:01:00",0.512,9.28,0.07,7.31,9.79,160.2
"12/09/05","06:16:00",0.515,9.31,0.07,7.31,9.77,67.3
"12/09/05","06:31:00",0.526,9.31,0.07,7.30,9.77,63.2
"12/09/05","06:46:00",0.534,9.29,0.07,7.32,9.77,58.4
"12/09/05","07:01:00",0.534,9.31,0.07,7.30,9.75,58.7
"12/09/05","07:16:00",0.548,9.32,0.07,7.31,9.75,59.5
"12/09/05","07:31:00",0.539,9.18,0.07,7.32,9.83,91.0
"12/09/05","07:46:00",0.549,9.50,0.07,7.31,9.70,85.0
"12/09/05","08:01:00",0.176,9.80,0.07,7.24,9.62,55.0
"12/09/05","08:16:00",0.155,7.60,0.19,7.80,10.87,45.9
"12/09/05","08:31:00",0.143,7.56,0.19,7.89,10.91,44.3
"12/09/05","08:46:00",0.131,7.56,0.19,7.90,10.91,45.2
"12/09/05","09:01:00",0.130,7.63,0.19,7.90,10.85,46.5
"12/09/05","09:16:00",0.142,7.69,0.19,7.89,10.87,46.8
"12/09/05","09:31:00",0.142,7.67,0.19,7.90,10.91,46.9
"12/09/05","09:46:00",0.176,7.63,0.19,7.91,10.88,52.9
"12/09/05","10:01:00",0.177,7.69,0.19,7.90,10.87,54.6
"12/09/05","10:16:00",0.171,7.66,0.19,7.91,10.88,51.0
"12/09/05","10:31:00",0.170,7.69,0.19,7.91,10.93,49.6
"12/09/05","10:46:00",0.166,7.72,0.19,7.91,10.94,59.2
"12/09/05","11:01:00",0.165,7.73,0.18,7.91,10.94,52.5
"12/09/05","11:16:00",0.164,7.75,0.19,7.92,10.96,48.0
"12/09/05","11:31:00",0.167,7.78,0.19,7.92,10.99,51.6
"12/09/05","11:46:00",0.161,7.84,0.19,7.93,11.06,46.8
"12/09/05","12:01:00",0.148,7.84,0.19,7.93,11.01,40.8
"12/09/05","12:16:00",0.156,7.85,0.19,7.92,11.01,50.0
"12/09/05","12:31:00",0.151,7.90,0.19,7.93,11.01,44.2
"12/09/05","12:46:00",0.151,7.89,0.17,7.92,10.98,52.6
"12/09/05","13:01:00",0.147,8.00,0.18,7.93,11.00,43.8
"12/09/05","13:16:00",0.135,7.92,0.19,7.93,10.98,47.6
"12/09/05","13:31:00",0.141,7.93,0.19,7.93,10.99,52.8
"12/09/05","13:46:00",0.138,7.96,0.19,7.93,10.99,50.4
"12/09/05","14:01:00",0.138,8.07,0.19,7.94,11.00,113.7
"12/09/05","14:16:00",0.132,8.06,0.20,7.94,10.99,43.1
"12/09/05","14:31:00",0.159,8.04,0.20,7.93,10.93,41.3
"12/09/05","14:46:00",0.159,8.09,0.20,7.94,10.95,38.9
"12/09/05","15:01:00",0.154,8.18,0.20,7.91,10.90,41.1
"12/09/05","15:16:00",0.128,8.11,0.20,7.93,10.96,41.8
"12/09/05","15:31:00",0.132,8.14,0.20,7.93,10.96,41.6
"12/09/05","15:46:00",0.126,8.13,0.19,7.94,10.98,44.9
"12/09/05","16:01:00",0.128,8.13,0.20,7.94,10.97,38.3
"12/09/05","16:16:00",0.124,8.16,0.20,7.94,11.00,39.4
"12/09/05","16:31:00",0.126,8.21,0.20,7.95,11.00,39.2
"12/09/05","16:46:00",0.132,8.23,0.20,7.95,11.01,38.1
"12/09/05","17:01:00",0.127,8.19,0.20,7.95,10.98,42.8
"12/09/05","17:16:00",0.127,8.22,0.20,7.95,10.98,35.5
"12/09/05","17:31:00",0.329,8.32,0.17,7.82,10.47,243.2
"12/09/05","17:46:00",0.299,8.28,0.20,7.95,10.85,39.2
"12/09/05","18:01:00",0.302,8.26,0.20,7.95,10.91,35.2
"12/09/05","18:16:00",0.304,8.25,0.20,7.95,10.92,31.6
"12/09/05","18:31:00",0.306,8.24,0.20,7.95,10.93,30.6
"12/09/05","18:46:00",0.309,8.25,0.20,7.95,10.92,32.3
"12/09/05","19:01:00",0.303,8.24,0.20,7.95,10.96,34.5
"12/09/05","19:16:00",0.309,8.21,0.19,7.94,10.89,101.3
"12/09/05","19:31:00",0.308,8.22,0.19,7.95,10.88,46.8
"12/09/05","19:46:00",0.319,8.20,0.19,7.95,10.88,33.5
"12/09/05","20:01:00",0.315,8.20,0.19,7.95,10.88,31.0
